Time,TemperatureF,DewpointF,PressureIn,WindDirection,WindDirectionDegrees,WindSpeedMPH,WindSpeedGustMPH,Humidity,HourlyPrecipIn,Conditions,Clouds,dailyrainin,SoftwareType,DateUTC
2013-02-08 00:09:00,32.2,18.3,29.98,ENE,57,2.7,2.7,56,0.00,,---,0.00,VWS V14.01,2013-02-08 05:09:00,
2013-02-08 00:14:00,32.2,18.3,29.98,ESE,120,0.0,0.0,56,0.00,,---,0.00,VWS V14.01,2013-02-08 05:14:00,
2013-02-08 00:19:00,32.2,18.3,29.98,East,84,0.0,2.2,56,0.00,,---,0.00,VWS V14.01,2013-02-08 05:19:00,
2013-02-08 00:24:00,32.0,18.1,29.98,East,85,2.2,2.7,56,0.00,,---,0.00,VWS V14.01,2013-02-08 05:24:00,
2013-02-08 00:29:00,32.0,18.5,29.95,East,85,0.0,0.0,57,0.00,,---,0.00,VWS V14.01,2013-02-08 05:29:00,
2013-02-08 00:34:00,32.0,18.5,29.95,ESE,114,0.0,0.0,57,0.00,,---,0.00,VWS V14.01,2013-02-08 05:34:00,
2013-02-08 00:39:00,31.8,18.3,29.95,ESE,114,0.0,0.0,57,0.00,,---,0.00,VWS V14.01,2013-02-08 05:39:00,
2013-02-08 00:44:00,31.8,18.3,29.95,NE,55,0.0,0.0,57,0.00,,---,0.00,VWS V14.01,2013-02-08 05:44:00,
2013-02-08 00:50:00,31.8,18.7,29.95,NNE,29,2.2,2.2,58,0.00,,---,0.00,VWS V14.01,2013-02-08 05:50:00,
2013-02-08 00:55:00,31.8,18.7,29.95,ENE,59,0.0,0.0,58,0.00,,---,0.00,VWS V14.01,2013-02-08 05:55:00,
2013-02-08 01:00:00,31.8,18.7,29.95,ENE,60,0.0,0.0,58,0.00,,---,0.00,VWS V14.01,2013-02-08 06:00:00,
2013-02-08 01:05:00,31.8,18.7,29.95,NE,54,3.6,3.6,58,0.00,,---,0.00,VWS V14.01,2013-02-08 06:05:00,
2013-02-08 01:10:00,31.8,18.7,29.95,East,87,3.6,3.6,58,0.00,,---,0.00,VWS V14.01,2013-02-08 06:10:00,
2013-02-08 01:15:00,31.8,18.7,29.95,NE,49,0.0,0.0,58,0.00,,---,0.00,VWS V14.01,2013-02-08 06:15:00,
2013-02-08 01:20:00,31.6,18.6,29.95,NE,53,0.0,0.0,58,0.00,,---,0.00,VWS V14.01,2013-02-08 06:20:00,
2013-02-08 01:25:00,31.6,18.6,29.95,NE,53,0.0,0.0,58,0.00,,---,0.00,VWS V14.01,2013-02-08 06:25:00,
2013-02-08 01:30:00,31.6,18.6,29.95,ENE,65,2.7,2.7,58,0.00,,---,0.00,VWS V14.01,2013-02-08 06:30:00,
2013-02-08 01:35:00,31.6,18.6,29.95,East,89,3.6,3.6,58,0.00,,---,0.00,VWS V14.01,2013-02-08 06:35:00,
2013-02-08 01:40:00,31.6,19.0,29.95,ENE,63,0.0,2.7,59,0.00,,---,0.00,VWS V14.01,2013-02-08 06:40:00,
2013-02-08 01:45:00,31.5,18.8,29.95,ENE,63,0.0,0.0,59,0.00,,---,0.00,VWS V14.01,2013-02-08 06:45:00,
2013-02-08 01:50:00,31.5,18.8,29.95,ENE,61,0.0,0.0,59,0.00,,---,0.00,VWS V14.01,2013-02-08 06:50:00,
2013-02-08 01:55:00,31.5,19.2,29.95,NE,34,0.0,2.2,60,0.00,,---,0.00,VWS V14.01,2013-02-08 06:55:00,
2013-02-08 02:00:00,31.5,19.2,29.92,NNE,33,0.0,0.0,60,0.00,,---,0.00,VWS V14.01,2013-02-08 07:00:00,
2013-02-08 02:05:00,31.5,19.2,29.92,NNE,33,0.0,0.0,60,0.00,,---,0.00,VWS V14.01,2013-02-08 07:05:00,
2013-02-08 02:10:00,31.5,19.6,29.92,NNE,33,0.0,0.0,61,0.00,,---,0.00,VWS V14.01,2013-02-08 07:10:00,
2013-02-08 02:15:00,31.3,19.4,29.92,NE,39,0.0,0.0,61,0.00,,---,0.00,VWS V14.01,2013-02-08 07:15:00,
2013-02-08 02:20:00,31.3,19.8,29.92,NE,39,0.0,0.0,62,0.00,,---,0.00,VWS V14.01,2013-02-08 07:20:00,
2013-02-08 02:25:00,31.1,19.6,29.92,NE,39,0.0,0.0,62,0.00,,---,0.00,VWS V14.01,2013-02-08 07:25:00,
2013-02-08 02:30:00,31.1,20.4,29.92,ENE,74,0.0,0.0,64,0.00,,---,0.00,VWS V14.01,2013-02-08 07:30:00,
2013-02-08 02:35:00,31.1,20.4,29.92,ENE,74,0.0,0.0,64,0.00,,---,0.00,VWS V14.01,2013-02-08 07:35:00,
2013-02-08 02:40:00,31.1,20.7,29.92,ENE,76,0.0,0.0,65,0.00,,---,0.00,VWS V14.01,2013-02-08 07:40:00,
2013-02-08 02:45:00,31.1,21.1,29.92,ENE,77,0.0,0.0,66,0.00,,---,0.00,VWS V14.01,2013-02-08 07:45:00,
2013-02-08 02:51:00,31.1,21.1,29.92,East,83,0.0,0.0,66,0.00,,---,0.00,VWS V14.01,2013-02-08 07:51:00,
2013-02-08 02:56:00,31.1,21.1,29.89,ENE,75,3.6,3.6,66,0.00,,---,0.00,VWS V14.01,2013-02-08 07:56:00,
2013-02-08 03:01:00,31.1,21.8,29.89,ENE,75,0.0,0.0,68,0.00,,---,0.00,VWS V14.01,2013-02-08 08:01:00,
2013-02-08 03:06:00,31.1,21.8,29.89,ENE,75,0.0,0.0,68,0.00,,---,0.00,VWS V14.01,2013-02-08 08:06:00,
2013-02-08 03:11:00,30.9,22.0,29.89,ENE,65,0.0,0.0,69,0.00,,---,0.00,VWS V14.01,2013-02-08 08:11:00,
2013-02-08 03:16:00,30.9,22.0,29.89,ENE,67,0.0,0.0,69,0.00,,---,0.00,VWS V14.01,2013-02-08 08:16:00,
2013-02-08 03:21:00,30.9,22.0,29.89,NE,48,3.6,3.6,69,0.00,,---,0.00,VWS V14.01,2013-02-08 08:21:00,
2013-02-08 03:26:00,31.1,22.5,29.89,East,85,0.0,0.0,70,0.00,,---,0.00,VWS V14.01,2013-02-08 08:26:00,
2013-02-08 03:31:00,31.1,22.5,29.89,ENE,66,0.0,0.0,70,0.00,,---,0.00,VWS V14.01,2013-02-08 08:31:00,
2013-02-08 03:36:00,31.1,22.5,29.89,ENE,59,0.0,0.0,70,0.00,,---,0.00,VWS V14.01,2013-02-08 08:36:00,
2013-02-08 03:41:00,31.1,22.8,29.89,ENE,59,0.0,0.0,71,0.00,,---,0.00,VWS V14.01,2013-02-08 08:41:00,
2013-02-08 03:46:00,31.1,22.8,29.89,ENE,64,0.0,0.0,71,0.00,,---,0.00,VWS V14.01,2013-02-08 08:46:00,
2013-02-08 03:51:00,31.1,22.8,29.89,ENE,64,0.0,0.0,71,0.00,,---,0.00,VWS V14.01,2013-02-08 08:51:00,
2013-02-08 03:56:00,31.1,22.8,29.86,ENE,64,0.0,0.0,71,0.00,,---,0.00,VWS V14.01,2013-02-08 08:56:00,
2013-02-08 04:01:00,31.1,22.8,29.86,ENE,64,0.0,0.0,71,0.00,,---,0.00,VWS V14.01,2013-02-08 09:01:00,
2013-02-08 04:06:00,31.1,22.8,29.86,ENE,64,0.0,0.0,71,0.00,,---,0.00,VWS V14.01,2013-02-08 09:06:00,
2013-02-08 04:11:00,31.1,22.8,29.86,ENE,63,0.0,0.0,71,0.00,,---,0.00,VWS V14.01,2013-02-08 09:11:00,
2013-02-08 04:16:00,31.1,22.8,29.86,ENE,63,0.0,0.0,71,0.00,,---,0.00,VWS V14.01,2013-02-08 09:16:00,
2013-02-08 04:21:00,31.1,22.8,29.86,ENE,64,0.0,0.0,71,0.00,,---,0.00,VWS V14.01,2013-02-08 09:21:00,
2013-02-08 04:26:00,31.1,22.8,29.86,ENE,68,2.7,2.7,71,0.00,,---,0.00,VWS V14.01,2013-02-08 09:26:00,
2013-02-08 04:31:00,31.1,23.1,29.86,ENE,74,0.0,0.0,72,0.00,,---,0.00,VWS V14.01,2013-02-08 09:31:00,
2013-02-08 04:36:00,31.1,23.1,29.86,East,85,0.0,0.0,72,0.00,,---,0.00,VWS V14.01,2013-02-08 09:36:00,
2013-02-08 04:41:00,31.1,23.5,29.89,East,85,0.0,0.0,73,0.00,,---,0.00,VWS V14.01,2013-02-08 09:41:00,
2013-02-08 04:46:00,31.1,23.5,29.89,East,81,0.0,0.0,73,0.00,,---,0.00,VWS V14.01,2013-02-08 09:46:00,
2013-02-08 04:51:00,31.1,23.5,29.89,East,81,0.0,0.0,73,0.00,,---,0.00,VWS V14.01,2013-02-08 09:51:00,
2013-02-08 04:56:00,31.1,23.5,29.86,ENE,67,0.0,0.0,73,0.00,,---,0.00,VWS V14.01,2013-02-08 09:56:00,
2013-02-08 05:01:00,31.3,24.0,29.86,ENE,67,0.0,0.0,74,0.00,,---,0.00,VWS V14.01,2013-02-08 10:01:00,
2013-02-08 05:06:00,31.3,24.0,29.86,ENE,70,0.0,0.0,74,0.00,,---,0.00,VWS V14.01,2013-02-08 10:06:00,
2013-02-08 05:11:00,31.3,24.0,29.86,ENE,63,0.0,0.0,74,0.00,,---,0.00,VWS V14.01,2013-02-08 10:11:00,
2013-02-08 05:16:00,31.3,24.0,29.86,ENE,63,0.0,0.0,74,0.00,,---,0.00,VWS V14.01,2013-02-08 10:16:00,
2013-02-08 05:21:00,31.3,24.0,29.86,ENE,63,0.0,0.0,74,0.00,,---,0.00,VWS V14.01,2013-02-08 10:21:00,
2013-02-08 05:26:00,31.5,24.5,29.86,ENE,63,0.0,0.0,75,0.00,,---,0.00,VWS V14.01,2013-02-08 10:26:00,
2013-02-08 05:31:00,31.5,24.5,29.86,East,79,0.0,0.0,75,0.00,,---,0.00,VWS V14.01,2013-02-08 10:31:00,
2013-02-08 05:37:00,31.6,24.6,29.86,East,79,0.0,0.0,75,0.00,,---,0.00,VWS V14.01,2013-02-08 10:37:00,
2013-02-08 05:42:00,31.6,24.6,29.86,East,81,0.0,0.0,75,0.00,,---,0.00,VWS V14.01,2013-02-08 10:42:00,
2013-02-08 05:47:00,31.6,24.6,29.86,East,81,0.0,0.0,75,0.00,,---,0.00,VWS V14.01,2013-02-08 10:47:00,
2013-02-08 05:52:00,31.6,24.6,29.86,East,81,0.0,0.0,75,0.00,,---,0.00,VWS V14.01,2013-02-08 10:52:00,
2013-02-08 05:57:00,31.6,24.6,29.86,East,81,0.0,0.0,75,0.00,,---,0.00,VWS V14.01,2013-02-08 10:57:00,
2013-02-08 06:02:00,31.6,24.6,29.86,East,81,0.0,0.0,75,0.00,,---,0.00,VWS V14.01,2013-02-08 11:02:00,
2013-02-08 06:07:00,31.6,24.6,29.86,East,85,0.0,0.0,75,0.00,,---,0.00,VWS V14.01,2013-02-08 11:07:00,
2013-02-08 06:12:00,31.8,24.8,29.86,East,85,0.0,0.0,75,0.00,,---,0.00,VWS V14.01,2013-02-08 11:12:00,
2013-02-08 06:17:00,31.8,24.8,29.86,East,85,0.0,0.0,75,0.00,,---,0.00,VWS V14.01,2013-02-08 11:17:00,
2013-02-08 06:22:00,31.8,24.8,29.86,East,85,0.0,0.0,75,0.00,,---,0.00,VWS V14.01,2013-02-08 11:22:00,
2013-02-08 06:27:00,32.0,25.0,29.86,East,85,0.0,0.0,75,0.00,,---,0.00,VWS V14.01,2013-02-08 11:27:00,
2013-02-08 06:32:00,32.0,25.0,29.86,East,85,0.0,0.0,75,0.00,,---,0.00,VWS V14.01,2013-02-08 11:32:00,
2013-02-08 06:37:00,32.0,25.0,29.86,East,85,0.0,0.0,75,0.00,,---,0.00,VWS V14.01,2013-02-08 11:37:00,
2013-02-08 06:42:00,32.0,25.0,29.86,East,85,0.0,0.0,75,0.00,,---,0.00,VWS V14.01,2013-02-08 11:42:00,
2013-02-08 06:47:00,32.0,25.0,29.86,East,85,0.0,0.0,75,0.00,,---,0.00,VWS V14.01,2013-02-08 11:47:00,
2013-02-08 06:52:00,32.0,25.0,29.86,East,85,0.0,0.0,75,0.00,,---,0.00,VWS V14.01,2013-02-08 11:52:00,
2013-02-08 06:57:00,31.8,24.8,29.83,East,85,0.0,0.0,75,0.00,,---,0.00,VWS V14.01,2013-02-08 11:57:00,
2013-02-08 07:02:00,31.8,24.8,29.83,East,85,0.0,0.0,75,0.00,,---,0.00,VWS V14.01,2013-02-08 12:02:00,
2013-02-08 07:07:00,31.8,24.8,29.83,East,85,0.0,0.0,75,0.00,,---,0.00,VWS V14.01,2013-02-08 12:07:00,
2013-02-08 07:12:00,31.8,24.8,29.83,East,85,0.0,0.0,75,0.00,,---,0.00,VWS V14.01,2013-02-08 12:12:00,
2013-02-08 07:17:00,32.0,25.3,29.83,East,85,0.0,0.0,76,0.00,,---,0.00,VWS V14.01,2013-02-08 12:17:00,
2013-02-08 07:22:00,32.0,25.3,29.83,East,85,0.0,0.0,76,0.00,,---,0.00,VWS V14.01,2013-02-08 12:22:00,
2013-02-08 07:27:00,32.2,25.5,29.83,East,85,0.0,0.0,76,0.00,,---,0.00,VWS V14.01,2013-02-08 12:27:00,
2013-02-08 07:33:00,32.2,25.5,29.83,East,85,0.0,0.0,76,0.00,,---,0.00,VWS V14.01,2013-02-08 12:33:00,
2013-02-08 07:38:00,32.2,25.5,29.83,East,85,0.0,0.0,76,0.00,,---,0.00,VWS V14.01,2013-02-08 12:38:00,
2013-02-08 07:43:00,32.2,25.5,29.83,East,85,0.0,0.0,76,0.00,,---,0.00,VWS V14.01,2013-02-08 12:43:00,
2013-02-08 07:48:00,32.2,25.5,29.83,East,85,0.0,0.0,76,0.00,,---,0.00,VWS V14.01,2013-02-08 12:48:00,
2013-02-08 07:53:00,32.4,25.6,29.83,East,85,0.0,0.0,76,0.00,,---,0.00,VWS V14.01,2013-02-08 12:53:00,
2013-02-08 07:58:00,32.4,25.6,29.83,East,85,0.0,0.0,76,0.00,,---,0.00,VWS V14.01,2013-02-08 12:58:00,
2013-02-08 08:03:00,32.5,25.8,29.83,East,85,0.0,0.0,76,0.00,,---,0.00,VWS V14.01,2013-02-08 13:03:00,
2013-02-08 08:08:00,32.5,25.8,29.83,East,85,0.0,0.0,76,0.00,,---,0.00,VWS V14.01,2013-02-08 13:08:00,
2013-02-08 08:13:00,32.5,25.8,29.83,East,85,0.0,0.0,76,0.00,,---,0.00,VWS V14.01,2013-02-08 13:13:00,
2013-02-08 08:18:00,32.5,25.8,29.83,East,85,0.0,0.0,76,0.00,,---,0.00,VWS V14.01,2013-02-08 13:18:00,
2013-02-08 08:24:00,32.4,25.6,29.83,East,85,0.0,0.0,76,0.00,,---,0.00,VWS V14.01,2013-02-08 13:24:00,
2013-02-08 08:29:00,32.2,25.5,29.80,East,85,0.0,0.0,76,0.00,,---,0.00,VWS V14.01,2013-02-08 13:29:00,
2013-02-08 08:34:00,32.2,25.5,29.80,East,85,0.0,0.0,76,0.00,,---,0.00,VWS V14.01,2013-02-08 13:34:00,
2013-02-08 08:39:00,32.2,25.5,29.80,East,85,0.0,0.0,76,0.00,,---,0.00,VWS V14.01,2013-02-08 13:39:00,
2013-02-08 08:44:00,32.2,25.5,29.83,East,85,0.0,0.0,76,0.00,,---,0.00,VWS V14.01,2013-02-08 13:44:00,
2013-02-08 08:49:00,32.0,25.3,29.83,East,85,0.0,0.0,76,0.00,,---,0.00,VWS V14.01,2013-02-08 13:49:00,
2013-02-08 08:54:00,32.2,25.5,29.83,East,85,0.0,0.0,76,0.00,,---,0.00,VWS V14.01,2013-02-08 13:54:00,
2013-02-08 08:59:00,32.2,25.8,29.83,East,85,0.0,0.0,77,0.00,,---,0.00,VWS V14.01,2013-02-08 13:59:00,
2013-02-08 09:04:00,32.4,26.0,29.83,East,85,0.0,0.0,77,0.00,,---,0.00,VWS V14.01,2013-02-08 14:04:00,
2013-02-08 09:09:00,32.5,26.1,29.83,East,85,0.0,0.0,77,0.00,,---,0.00,VWS V14.01,2013-02-08 14:09:00,
2013-02-08 09:14:00,32.7,26.3,29.80,East,85,0.0,0.0,77,0.00,,---,0.00,VWS V14.01,2013-02-08 14:14:00,
2013-02-08 09:19:00,33.1,27.0,29.80,East,86,0.0,0.0,78,0.00,,---,0.00,VWS V14.01,2013-02-08 14:19:00,
2013-02-08 09:24:00,33.3,27.1,29.80,East,89,0.0,0.0,78,0.00,,---,0.00,VWS V14.01,2013-02-08 14:24:00,
2013-02-08 09:29:00,33.4,27.3,29.80,SSW,211,2.7,2.7,78,0.00,,---,0.00,VWS V14.01,2013-02-08 14:29:00,
2013-02-08 09:35:00,33.6,27.5,29.80,SSW,211,0.0,0.0,78,0.00,,---,0.00,VWS V14.01,2013-02-08 14:35:00,
2013-02-08 09:40:00,33.6,27.2,29.80,SSW,211,0.0,0.0,77,0.00,,---,0.00,VWS V14.01,2013-02-08 14:40:00,
2013-02-08 09:45:00,33.6,27.2,29.80,WSW,240,0.0,0.0,77,0.00,,---,0.00,VWS V14.01,2013-02-08 14:45:00,
2013-02-08 09:50:00,33.8,27.4,29.80,WSW,238,0.0,0.0,77,0.00,,---,0.00,VWS V14.01,2013-02-08 14:50:00,
2013-02-08 09:55:00,33.8,27.4,29.80,WSW,239,0.0,0.0,77,0.00,,---,0.00,VWS V14.01,2013-02-08 14:55:00,
2013-02-08 10:00:00,33.8,27.4,29.80,SW,231,0.0,0.0,77,0.00,,---,0.00,VWS V14.01,2013-02-08 15:00:00,
2013-02-08 10:05:00,33.8,27.0,29.80,SSW,210,0.0,0.0,76,0.00,,---,0.00,VWS V14.01,2013-02-08 15:05:00,
2013-02-08 10:10:00,33.6,26.9,29.80,SSW,210,0.0,2.2,76,0.00,,---,0.00,VWS V14.01,2013-02-08 15:10:00,
2013-02-08 10:15:00,33.6,26.9,29.80,WSW,254,0.0,0.0,76,0.00,,---,0.00,VWS V14.01,2013-02-08 15:15:00,
2013-02-08 10:20:00,33.8,27.0,29.80,WSW,244,3.6,3.6,76,0.00,,---,0.00,VWS V14.01,2013-02-08 15:20:00,
2013-02-08 10:25:00,33.8,27.0,29.80,WSW,244,0.0,0.0,76,0.00,,---,0.00,VWS V14.01,2013-02-08 15:25:00,
2013-02-08 10:30:00,34.0,27.5,29.80,WSW,244,0.0,0.0,77,0.00,,---,0.00,VWS V14.01,2013-02-08 15:30:00,
2013-02-08 10:35:00,34.0,27.5,29.80,West,263,0.0,0.0,77,0.00,,---,0.00,VWS V14.01,2013-02-08 15:35:00,
2013-02-08 10:41:00,34.2,27.7,29.80,West,263,0.0,0.0,77,0.00,,---,0.00,VWS V14.01,2013-02-08 15:41:00,
2013-02-08 10:46:00,34.3,28.2,29.80,SSW,206,2.2,3.1,78,0.00,,---,0.00,VWS V14.01,2013-02-08 15:46:00,
2013-02-08 10:51:00,34.3,28.2,29.80,SSW,206,0.0,0.0,78,0.00,,---,0.00,VWS V14.01,2013-02-08 15:51:00,
2013-02-08 10:56:00,34.3,28.2,29.77,SSW,206,0.0,0.0,78,0.00,,---,0.00,VWS V14.01,2013-02-08 15:56:00,
2013-02-08 11:01:00,34.3,28.2,29.77,SSW,206,0.0,0.0,78,0.00,,---,0.00,VWS V14.01,2013-02-08 16:01:00,
2013-02-08 11:06:00,34.5,28.4,29.77,SSW,200,3.6,3.6,78,0.00,,---,0.00,VWS V14.01,2013-02-08 16:06:00,
2013-02-08 11:11:00,34.5,28.4,29.77,SW,215,4.9,4.9,78,0.00,,---,0.00,VWS V14.01,2013-02-08 16:11:00,
2013-02-08 11:16:00,34.5,28.4,29.77,SSW,201,4.5,5.8,78,0.00,,---,0.00,VWS V14.01,2013-02-08 16:16:00,
2013-02-08 11:21:00,34.5,28.4,29.77,WSW,239,2.7,2.7,78,0.00,,---,0.00,VWS V14.01,2013-02-08 16:21:00,
2013-02-08 11:26:00,34.7,28.9,29.77,WSW,237,3.1,4.0,79,0.00,,---,0.00,VWS V14.01,2013-02-08 16:26:00,
2013-02-08 11:31:00,34.7,28.9,29.77,SW,221,3.6,3.6,79,0.00,,---,0.00,VWS V14.01,2013-02-08 16:31:00,
2013-02-08 11:36:00,34.9,29.0,29.77,SW,218,0.0,0.0,79,0.00,,---,0.00,VWS V14.01,2013-02-08 16:36:00,
2013-02-08 11:41:00,35.1,29.5,29.77,SW,221,0.0,0.0,80,0.00,,---,0.00,VWS V14.01,2013-02-08 16:41:00,
2013-02-08 11:46:00,35.1,29.5,29.77,WSW,246,3.6,3.6,80,0.00,,---,0.00,VWS V14.01,2013-02-08 16:46:00,
2013-02-08 11:51:00,35.2,29.7,29.77,WSW,243,3.1,3.1,80,0.00,,---,0.00,VWS V14.01,2013-02-08 16:51:00,
2013-02-08 11:56:00,35.4,29.6,29.77,WSW,253,4.9,6.3,79,0.00,,---,0.00,VWS V14.01,2013-02-08 16:56:00,
2013-02-08 12:01:00,35.6,29.4,29.77,SW,221,2.7,3.1,78,0.00,,---,0.00,VWS V14.01,2013-02-08 17:01:00,
2013-02-08 12:06:00,35.8,29.6,29.77,SW,229,4.0,4.9,78,0.00,,---,0.00,VWS V14.01,2013-02-08 17:06:00,
2013-02-08 12:11:00,36.1,30.0,29.77,SW,220,8.3,8.3,78,0.00,,---,0.00,VWS V14.01,2013-02-08 17:11:00,
2013-02-08 12:17:00,36.3,29.5,29.77,SW,236,3.6,6.3,76,0.08,,---,0.08,VWS V14.01,2013-02-08 17:17:00,
2013-02-08 12:22:00,36.9,29.7,29.77,West,260,4.0,6.3,75,0.08,,---,0.08,VWS V14.01,2013-02-08 17:22:00,
2013-02-08 12:27:00,37.2,30.0,29.74,WSW,258,4.0,4.0,75,0.08,,---,0.08,VWS V14.01,2013-02-08 17:27:00,
2013-02-08 12:32:00,37.8,29.9,29.74,West,264,5.4,5.4,73,0.08,,---,0.08,VWS V14.01,2013-02-08 17:32:00,
2013-02-08 12:37:00,38.5,30.6,29.74,SSW,196,6.3,6.3,73,0.08,,---,0.08,VWS V14.01,2013-02-08 17:37:00,
2013-02-08 12:42:00,38.8,29.9,29.74,SW,216,6.3,6.3,70,0.08,,---,0.08,VWS V14.01,2013-02-08 17:42:00,
2013-02-08 12:47:00,38.8,28.1,29.74,SW,220,5.8,7.6,65,0.08,,---,0.08,VWS V14.01,2013-02-08 17:47:00,
2013-02-08 12:52:00,38.5,27.4,29.74,WSW,252,4.0,5.8,64,0.08,,---,0.08,VWS V14.01,2013-02-08 17:52:00,
2013-02-08 12:57:00,38.5,27.8,29.74,SW,224,3.1,3.1,65,0.08,,---,0.08,VWS V14.01,2013-02-08 17:57:00,
2013-02-08 13:02:00,38.5,28.1,29.74,SSW,201,4.0,6.3,66,0.08,,---,0.08,VWS V14.01,2013-02-08 18:02:00,
2013-02-08 13:07:00,38.5,27.8,29.74,SW,234,4.0,4.0,65,0.08,,---,0.08,VWS V14.01,2013-02-08 18:07:00,
2013-02-08 13:12:00,38.5,28.1,29.74,SW,220,3.6,3.6,66,0.08,,---,0.08,VWS V14.01,2013-02-08 18:12:00,
2013-02-08 13:17:00,38.8,28.5,29.74,SSE,167,2.7,4.0,66,0.00,,---,0.08,VWS V14.01,2013-02-08 18:17:00,
2013-02-08 13:22:00,39.2,28.4,29.74,SW,225,4.0,4.0,65,0.00,,---,0.08,VWS V14.01,2013-02-08 18:22:00,
2013-02-08 13:28:00,40.1,29.7,29.74,SSW,211,4.0,6.7,66,0.00,,---,0.08,VWS V14.01,2013-02-08 18:28:00,
2013-02-08 13:33:00,41.0,30.1,29.74,SSW,211,3.6,5.4,65,0.00,,---,0.08,VWS V14.01,2013-02-08 18:33:00,
2013-02-08 13:38:00,41.7,28.9,29.74,SW,236,7.2,7.2,60,0.00,,---,0.08,VWS V14.01,2013-02-08 18:38:00,
2013-02-08 13:43:00,42.1,28.0,29.74,WSW,239,5.8,6.7,57,0.00,,---,0.08,VWS V14.01,2013-02-08 18:43:00,
2013-02-08 13:48:00,42.3,28.5,29.74,South,176,5.8,5.8,58,0.00,,---,0.08,VWS V14.01,2013-02-08 18:48:00,
2013-02-08 13:53:00,42.8,27.8,29.74,SSW,198,8.7,8.7,55,0.00,,---,0.08,VWS V14.01,2013-02-08 18:53:00,
2013-02-08 13:58:00,43.9,28.3,29.71,South,169,8.7,10.1,54,0.00,,---,0.08,VWS V14.01,2013-02-08 18:58:00,
2013-02-08 14:03:00,44.8,26.8,29.71,WSW,254,7.6,7.6,49,0.00,,---,0.08,VWS V14.01,2013-02-08 19:03:00,
2013-02-08 14:08:00,45.0,26.5,29.71,SSW,205,5.8,8.3,48,0.00,,---,0.08,VWS V14.01,2013-02-08 19:08:00,
2013-02-08 14:13:00,45.3,25.2,29.71,South,191,8.3,8.3,45,0.00,,---,0.08,VWS V14.01,2013-02-08 19:13:00,
2013-02-08 14:18:00,44.8,23.1,29.71,South,187,8.1,13.2,42,0.00,,---,0.08,VWS V14.01,2013-02-08 19:18:00,
2013-02-08 14:24:00,44.1,23.0,29.71,SW,227,8.7,10.1,43,0.00,,---,0.08,VWS V14.01,2013-02-08 19:24:00,
2013-02-08 14:28:00,43.5,22.0,29.74,SE,135,3.1,4.9,42,0.00,,---,0.08,VWS V14.01,2013-02-08 19:28:00,
2013-02-08 14:33:00,43.2,21.6,29.74,SW,215,6.3,8.3,42,0.00,,---,0.08,VWS V14.01,2013-02-08 19:33:00,
2013-02-08 14:39:00,42.6,21.1,29.74,SSW,210,7.6,11.0,42,0.00,,---,0.08,VWS V14.01,2013-02-08 19:39:00,
2013-02-08 14:44:00,42.1,20.7,29.74,SSW,193,12.8,14.5,42,0.00,,---,0.08,VWS V14.01,2013-02-08 19:44:00,
2013-02-08 14:49:00,41.4,20.6,29.74,SW,224,10.1,14.1,43,0.00,,---,0.08,VWS V14.01,2013-02-08 19:49:00,
2013-02-08 14:54:00,40.5,20.3,29.74,East,89,3.6,3.6,44,0.00,,---,0.08,VWS V14.01,2013-02-08 19:54:00,
2013-02-08 14:59:00,40.3,20.1,29.77,WSW,242,10.5,13.2,44,0.00,,---,0.08,VWS V14.01,2013-02-08 19:59:00,
2013-02-08 15:04:00,39.7,20.1,29.77,SSW,201,5.8,5.8,45,0.00,,---,0.08,VWS V14.01,2013-02-08 20:04:00,
2013-02-08 15:09:00,39.4,19.8,29.77,SSE,160,5.4,8.1,45,0.00,,---,0.08,VWS V14.01,2013-02-08 20:09:00,
2013-02-08 15:14:00,39.2,19.7,29.77,East,99,3.6,3.6,45,0.00,,---,0.08,VWS V14.01,2013-02-08 20:14:00,
2013-02-08 15:19:00,38.8,19.3,29.77,SSE,166,7.6,10.5,45,0.00,,---,0.08,VWS V14.01,2013-02-08 20:19:00,
2013-02-08 15:24:00,38.5,18.5,29.77,SW,216,5.4,7.2,44,0.00,,---,0.08,VWS V14.01,2013-02-08 20:24:00,
2013-02-08 15:29:00,38.1,18.7,29.77,SSE,157,10.5,11.4,45,0.00,,---,0.08,VWS V14.01,2013-02-08 20:29:00,
2013-02-08 15:34:00,37.8,18.3,29.77,SSW,210,5.4,12.8,45,0.00,,---,0.08,VWS V14.01,2013-02-08 20:34:00,
2013-02-08 15:39:00,37.4,18.0,29.77,WSW,240,4.5,4.5,45,0.00,,---,0.08,VWS V14.01,2013-02-08 20:39:00,
2013-02-08 15:44:00,37.2,18.4,29.77,South,186,4.0,4.0,46,0.00,,---,0.08,VWS V14.01,2013-02-08 20:44:00,
2013-02-08 15:50:00,37.0,18.2,29.77,SW,233,5.8,6.3,46,0.00,,---,0.08,VWS V14.01,2013-02-08 20:50:00,
2013-02-08 15:55:00,36.9,18.5,29.77,SE,146,0.0,0.0,47,0.00,,---,0.08,VWS V14.01,2013-02-08 20:55:00,
2013-02-08 16:00:00,36.9,18.0,29.80,ESE,120,0.0,0.0,46,0.00,,---,0.08,VWS V14.01,2013-02-08 21:00:00,
2013-02-08 16:05:00,36.7,17.4,29.80,South,182,4.9,5.4,45,0.00,,---,0.08,VWS V14.01,2013-02-08 21:05:00,
2013-02-08 16:10:00,36.3,16.5,29.80,SSW,192,3.1,3.1,44,0.00,,---,0.08,VWS V14.01,2013-02-08 21:10:00,
2013-02-08 16:15:00,36.1,16.9,29.80,West,274,5.4,5.4,45,0.00,,---,0.08,VWS V14.01,2013-02-08 21:15:00,
2013-02-08 16:20:00,35.8,18.0,29.80,SW,230,3.6,3.6,48,0.00,,---,0.08,VWS V14.01,2013-02-08 21:20:00,
2013-02-08 16:25:00,35.4,18.6,29.80,SSW,201,0.0,2.7,50,0.00,,---,0.08,VWS V14.01,2013-02-08 21:25:00,
2013-02-08 16:30:00,35.1,18.8,29.80,South,186,3.1,4.0,51,0.00,,---,0.08,VWS V14.01,2013-02-08 21:30:00,
2013-02-08 16:35:00,34.9,18.6,29.80,SSW,192,3.1,5.4,51,0.00,,---,0.08,VWS V14.01,2013-02-08 21:35:00,
2013-02-08 16:40:00,34.9,19.1,29.80,SW,216,5.4,6.3,52,0.00,,---,0.08,VWS V14.01,2013-02-08 21:40:00,
2013-02-08 16:45:00,34.5,19.2,29.80,South,172,4.0,5.8,53,0.00,,---,0.08,VWS V14.01,2013-02-08 21:45:00,
2013-02-08 16:51:00,34.3,19.0,29.80,SW,223,3.6,5.4,53,0.00,,---,0.08,VWS V14.01,2013-02-08 21:51:00,
2013-02-08 16:56:00,34.0,18.7,29.83,North,353,0.0,2.7,53,0.00,,---,0.08,VWS V14.01,2013-02-08 21:56:00,
2013-02-08 17:01:00,33.8,18.9,29.83,West,276,5.8,8.1,54,0.00,,---,0.08,VWS V14.01,2013-02-08 22:01:00,
2013-02-08 17:06:00,33.8,18.9,29.83,South,171,3.6,5.8,54,0.00,,---,0.08,VWS V14.01,2013-02-08 22:06:00,
2013-02-08 17:11:00,33.6,18.8,29.83,SSW,198,5.8,5.8,54,0.00,,---,0.08,VWS V14.01,2013-02-08 22:11:00,
2013-02-08 17:16:00,33.6,18.8,29.83,SE,124,5.4,5.8,54,0.00,,---,0.08,VWS V14.01,2013-02-08 22:16:00,
2013-02-08 17:21:00,33.6,17.9,29.83,SSW,205,4.0,4.0,52,0.00,,---,0.08,VWS V14.01,2013-02-08 22:21:00,
2013-02-08 17:26:00,33.8,18.0,29.83,WSW,239,4.9,4.9,52,0.00,,---,0.08,VWS V14.01,2013-02-08 22:26:00,
2013-02-08 17:31:00,33.8,17.6,29.83,SW,224,5.4,5.4,51,0.00,,---,0.08,VWS V14.01,2013-02-08 22:31:00,
2013-02-08 17:36:00,33.8,17.1,29.83,SW,229,6.3,8.7,50,0.00,,---,0.08,VWS V14.01,2013-02-08 22:36:00,
2013-02-08 17:41:00,33.6,17.4,29.83,SW,226,5.4,5.4,51,0.00,,---,0.08,VWS V14.01,2013-02-08 22:41:00,
2013-02-08 17:46:00,33.6,17.4,29.83,South,191,2.7,4.0,51,0.00,,---,0.08,VWS V14.01,2013-02-08 22:46:00,
2013-02-08 17:51:00,33.4,17.7,29.83,SSW,210,3.6,6.3,52,0.00,,---,0.08,VWS V14.01,2013-02-08 22:51:00,
2013-02-08 17:56:00,33.3,17.5,29.83,SSE,159,5.4,5.4,52,0.00,,---,0.08,VWS V14.01,2013-02-08 22:56:00,
2013-02-08 18:01:00,33.3,17.5,29.83,South,187,5.8,5.8,52,0.00,,---,0.08,VWS V14.01,2013-02-08 23:01:00,
2013-02-08 18:06:00,33.3,17.1,29.83,SW,222,5.8,5.8,51,0.00,,---,0.08,VWS V14.01,2013-02-08 23:06:00,
2013-02-08 18:11:00,33.3,17.5,29.83,SW,228,3.6,6.3,52,0.00,,---,0.08,VWS V14.01,2013-02-08 23:11:00,
2013-02-08 18:16:00,33.3,17.5,29.83,SW,225,4.5,6.3,52,0.00,,---,0.08,VWS V14.01,2013-02-08 23:16:00,
2013-02-08 18:21:00,33.1,17.4,29.83,SW,229,4.0,8.3,52,0.00,,---,0.08,VWS V14.01,2013-02-08 23:21:00,
2013-02-08 18:26:00,33.1,16.9,29.86,WSW,252,5.8,9.6,51,0.00,,---,0.08,VWS V14.01,2013-02-08 23:26:00,
2013-02-08 18:31:00,33.1,16.9,29.86,South,190,5.4,6.3,51,0.00,,---,0.08,VWS V14.01,2013-02-08 23:31:00,
2013-02-08 18:37:00,33.1,16.0,29.86,SE,124,4.0,8.3,49,0.00,,---,0.08,VWS V14.01,2013-02-08 23:37:00,
2013-02-08 18:42:00,32.9,15.4,29.86,ESE,113,3.6,5.8,48,0.00,,---,0.08,VWS V14.01,2013-02-08 23:42:00,
2013-02-08 18:47:00,32.7,14.7,29.86,East,93,5.4,5.4,47,0.00,,---,0.08,VWS V14.01,2013-02-08 23:47:00,
2013-02-08 18:52:00,32.7,14.7,29.86,South,183,2.7,2.7,47,0.00,,---,0.08,VWS V14.01,2013-02-08 23:52:00,
2013-02-08 18:57:00,32.7,14.7,29.86,SE,137,3.1,4.0,47,0.00,,---,0.08,VWS V14.01,2013-02-08 23:57:00,
2013-02-08 19:02:00,32.5,15.0,29.86,NW,311,8.1,8.1,48,0.00,,---,0.08,VWS V14.01,2013-02-09 00:02:00,
2013-02-08 19:07:00,32.4,15.4,29.86,North,7,0.0,3.6,49,0.00,,---,0.08,VWS V14.01,2013-02-09 00:07:00,
2013-02-08 19:12:00,32.4,15.8,29.86,ESE,116,2.7,2.7,50,0.00,,---,0.08,VWS V14.01,2013-02-09 00:12:00,
2013-02-08 19:17:00,32.2,15.2,29.86,ENE,60,2.7,4.9,49,0.00,,---,0.08,VWS V14.01,2013-02-09 00:17:00,
2013-02-08 19:22:00,32.2,15.2,29.86,East,100,2.2,4.9,49,0.00,,---,0.08,VWS V14.01,2013-02-09 00:22:00,
2013-02-08 19:27:00,32.2,15.2,29.86,SSE,159,0.0,0.0,49,0.00,,---,0.08,VWS V14.01,2013-02-09 00:27:00,
2013-02-08 19:32:00,32.0,15.0,29.86,SE,144,2.7,2.7,49,0.00,,---,0.08,VWS V14.01,2013-02-09 00:32:00,
2013-02-08 19:37:00,32.0,15.0,29.86,SSW,209,4.0,4.9,49,0.00,,---,0.08,VWS V14.01,2013-02-09 00:37:00,
2013-02-08 19:42:00,31.8,14.9,29.89,WSW,247,4.0,4.0,49,0.00,,---,0.08,VWS V14.01,2013-02-09 00:42:00,
2013-02-08 19:47:00,31.8,15.3,29.89,SW,222,0.0,0.0,50,0.00,,---,0.08,VWS V14.01,2013-02-09 00:47:00,
2013-02-08 19:52:00,31.6,15.6,29.89,SSE,163,2.7,4.0,51,0.00,,---,0.08,VWS V14.01,2013-02-09 00:52:00,
2013-02-08 19:57:00,31.6,15.1,29.89,NNW,338,0.0,2.2,50,0.00,,---,0.08,VWS V14.01,2013-02-09 00:57:00,
2013-02-08 20:03:00,31.5,15.0,29.89,SSE,166,5.8,5.8,50,0.00,,---,0.08,VWS V14.01,2013-02-09 01:03:00,
2013-02-08 20:08:00,31.5,15.0,29.89,East,85,2.2,2.2,50,0.00,,---,0.08,VWS V14.01,2013-02-09 01:08:00,
2013-02-08 20:13:00,31.3,14.4,29.89,SSW,207,4.0,4.0,49,0.00,,---,0.08,VWS V14.01,2013-02-09 01:13:00,
2013-02-08 20:18:00,31.3,14.4,29.89,SE,142,2.7,2.7,49,0.00,,---,0.08,VWS V14.01,2013-02-09 01:18:00,
2013-02-08 20:23:00,31.1,14.6,29.89,ESE,116,3.1,3.1,50,0.00,,---,0.08,VWS V14.01,2013-02-09 01:23:00,
2013-02-08 20:28:00,31.1,14.6,29.92,SSW,196,4.0,4.0,50,0.00,,---,0.08,VWS V14.01,2013-02-09 01:28:00,
2013-02-08 20:33:00,31.1,14.6,29.92,SSW,193,0.0,0.0,50,0.00,,---,0.08,VWS V14.01,2013-02-09 01:33:00,
2013-02-08 20:38:00,30.9,14.0,29.92,South,184,6.3,6.3,49,0.00,,---,0.08,VWS V14.01,2013-02-09 01:38:00,
2013-02-08 20:43:00,30.9,13.6,29.92,SSW,208,2.7,5.4,48,0.00,,---,0.08,VWS V14.01,2013-02-09 01:43:00,
2013-02-08 20:48:00,30.9,13.1,29.92,SE,138,2.7,4.9,47,0.00,,---,0.08,VWS V14.01,2013-02-09 01:48:00,
2013-02-08 20:53:00,30.7,13.4,29.92,SSE,167,0.0,0.0,48,0.00,,---,0.08,VWS V14.01,2013-02-09 01:53:00,
2013-02-08 20:58:00,30.7,12.9,29.92,South,183,2.7,4.0,47,0.00,,---,0.08,VWS V14.01,2013-02-09 01:58:00,
2013-02-08 21:03:00,30.6,12.7,29.92,ENE,76,3.1,3.1,47,0.00,,---,0.08,VWS V14.01,2013-02-09 02:03:00,
2013-02-08 21:08:00,30.6,12.7,29.92,SE,140,4.9,4.9,47,0.00,,---,0.08,VWS V14.01,2013-02-09 02:08:00,
2013-02-08 21:13:00,30.4,12.6,29.92,South,187,3.6,5.4,47,0.00,,---,0.08,VWS V14.01,2013-02-09 02:13:00,
2013-02-08 21:19:00,30.4,13.1,29.92,South,187,4.0,5.4,48,0.00,,---,0.08,VWS V14.01,2013-02-09 02:19:00,
2013-02-08 21:24:00,30.2,12.9,29.92,East,92,2.7,2.7,48,0.00,,---,0.08,VWS V14.01,2013-02-09 02:24:00,
2013-02-08 21:29:00,30.2,13.4,29.95,SW,229,2.7,2.7,49,0.00,,---,0.08,VWS V14.01,2013-02-09 02:29:00,
2013-02-08 21:34:00,30.0,13.2,29.95,South,188,5.8,8.1,49,0.00,,---,0.08,VWS V14.01,2013-02-09 02:34:00,
2013-02-08 21:39:00,30.0,12.7,29.95,SSW,205,7.6,7.6,48,0.00,,---,0.08,VWS V14.01,2013-02-09 02:39:00,
2013-02-08 21:44:00,29.8,13.0,29.95,SSW,212,5.4,5.4,49,0.00,,---,0.08,VWS V14.01,2013-02-09 02:44:00,
2013-02-08 21:49:00,29.8,12.6,29.95,SSE,151,0.0,0.0,48,0.00,,---,0.08,VWS V14.01,2013-02-09 02:49:00,
2013-02-08 21:54:00,29.8,13.0,29.95,East,91,2.2,3.6,49,0.00,,---,0.08,VWS V14.01,2013-02-09 02:54:00,
2013-02-08 21:59:00,29.7,12.9,29.95,SSW,204,0.0,0.0,49,0.00,,---,0.08,VWS V14.01,2013-02-09 02:59:00,
2013-02-08 22:04:00,29.7,12.9,29.95,SW,225,3.1,4.9,49,0.00,,---,0.08,VWS V14.01,2013-02-09 03:04:00,
2013-02-08 22:09:00,29.7,12.9,29.95,WSW,257,0.0,0.0,49,0.00,,---,0.08,VWS V14.01,2013-02-09 03:09:00,
2013-02-08 22:14:00,29.7,12.9,29.95,West,261,6.3,10.5,49,0.00,,---,0.08,VWS V14.01,2013-02-09 03:14:00,
2013-02-08 22:19:00,29.7,12.9,29.95,SSW,194,0.0,2.2,49,0.00,,---,0.08,VWS V14.01,2013-02-09 03:19:00,
2013-02-08 22:24:00,29.5,12.7,29.95,WSW,252,0.0,0.0,49,0.00,,---,0.08,VWS V14.01,2013-02-09 03:24:00,
2013-02-08 22:29:00,29.5,13.1,29.95,South,190,5.4,5.4,50,0.00,,---,0.08,VWS V14.01,2013-02-09 03:29:00,
2013-02-08 22:35:00,29.5,13.1,29.95,SSE,148,6.3,6.3,50,0.00,,---,0.08,VWS V14.01,2013-02-09 03:35:00,
2013-02-08 22:40:00,29.5,13.1,29.95,North,353,3.1,3.1,50,0.00,,---,0.08,VWS V14.01,2013-02-09 03:40:00,
2013-02-08 22:45:00,29.5,12.7,29.98,East,92,3.1,3.1,49,0.00,,---,0.08,VWS V14.01,2013-02-09 03:45:00,
2013-02-08 22:50:00,29.5,13.1,29.98,SW,218,3.6,4.9,50,0.00,,---,0.08,VWS V14.01,2013-02-09 03:50:00,
2013-02-08 22:55:00,29.5,12.7,29.98,SW,229,2.7,2.7,49,0.00,,---,0.08,VWS V14.01,2013-02-09 03:55:00,
2013-02-08 23:00:00,29.5,12.7,29.98,South,171,6.3,8.3,49,0.00,,---,0.08,VWS V14.01,2013-02-09 04:00:00,
2013-02-08 23:05:00,29.5,11.8,29.98,East,91,3.6,3.6,47,0.00,,---,0.08,VWS V14.01,2013-02-09 04:05:00,
2013-02-08 23:10:00,29.5,11.3,29.98,South,191,3.6,7.6,46,0.00,,---,0.08,VWS V14.01,2013-02-09 04:10:00,
2013-02-08 23:15:00,29.5,11.8,29.98,SW,222,4.9,4.9,47,0.00,,---,0.08,VWS V14.01,2013-02-09 04:15:00,
2013-02-08 23:20:00,29.5,11.8,29.98,SE,125,2.7,2.7,47,0.00,,---,0.08,VWS V14.01,2013-02-09 04:20:00,
2013-02-08 23:25:00,29.3,11.6,29.98,SSW,198,2.2,3.1,47,0.00,,---,0.08,VWS V14.01,2013-02-09 04:25:00,
2013-02-08 23:30:00,29.1,11.4,29.98,SSE,158,4.5,4.5,47,0.00,,---,0.08,VWS V14.01,2013-02-09 04:30:00,
2013-02-08 23:35:00,29.1,11.4,29.98,SSE,168,2.2,2.2,47,0.00,,---,0.08,VWS V14.01,2013-02-09 04:35:00,
2013-02-08 23:40:00,28.9,11.7,29.98,WSW,244,5.4,5.4,48,0.00,,---,0.08,VWS V14.01,2013-02-09 04:40:00,
2013-02-08 23:45:00,28.9,11.7,29.98,SSE,164,3.1,3.1,48,0.00,,---,0.08,VWS V14.01,2013-02-09 04:45:00,
2013-02-08 23:50:00,28.8,11.6,29.98,SW,225,3.6,6.3,48,0.00,,---,0.08,VWS V14.01,2013-02-09 04:50:00,
2013-02-08 23:55:00,28.6,11.9,29.98,ENE,70,2.7,4.0,49,0.00,,---,0.08,VWS V14.01,2013-02-09 04:55:00,